Flag for U.S.A. Weather past 2 weeks in Clearwater, Florida, U.S.A.

Now
72 °F

Overcast.


Feels Like: 72 °F
Forecast: 73 / 80 °F
Wind: 13 mph from Southeast

Location: St. Petersburg / Clearwater International Airport

Current Time: Apr 28, 2015 at 4:08:40 AM

Latest Report: Apr 28, 2015 at 2:53 AM


Visibility: 10 mi

Pressure: 29.76 "Hg

Humidity: 81%

Dew point: 66 °F

Location of ClearwaterLocation

Historic Weather in Clearwater — Graph

°F

Clearwater temperature yesterday

Maximum temperature yesterday: 85 °F (at 12:53 PM)
Minimum temperature yesterday: 74 °F (at 10:53 PM)
Average temperature yesterday: 79 °F

Past Weeks' High & Low Weather Summary

 TemperatureHumidityPressure
High88 °F (Apr 24, 3:53 PM)100% (Apr 19, 7:00 AM)30.16 "Hg (Apr 19, 7:00 AM)
Low68 °F (Apr 21, 2:53 AM)43% (Apr 22, 1:53 PM)29.74 "Hg (Apr 27, 2:53 AM)
Average78 °F78%29.96 "Hg
* Reported Apr 13 2:53 AM — Apr 28 2:53 AM, Clearwater, Weather by CustomWeather, © 2015

Note: Actual official high and low records may vary slightly from our data, if they occured in-between our weather recording intervals... More about our weather records

Advertising

Clearwater weather history for previous 24 hours

 ConditionsComfort  
Time TempWeatherWind HumidityBarometerVisibility
2:53 AM
Tue, Apr 28
72 °FOvercast.13 mph81%29.76 "Hg10 mi
1:53 AM72 °FLight rain. Passing clouds.7 mph87%29.80 "Hg10 mi
12:53 AM72 °FPassing clouds.5 mph87%29.82 "Hg10 mi
11:53 PM
Mon, Apr 27
74 °FPartly cloudy.6 mph79%29.86 "Hg10 mi
10:53 PM74 °FPartly cloudy.10 mph76%29.89 "Hg10 mi
9:53 PM75 °FPassing clouds.10 mph76%29.87 "Hg10 mi
8:53 PM76 °FBroken clouds.9 mph72%29.85 "Hg10 mi
7:53 PM76 °FSunny.8 mph72%29.82 "Hg10 mi
6:53 PM78 °FPartly sunny.14 mph62%29.82 "Hg10 mi
5:53 PM80 °FPartly sunny.18 mph60%29.82 "Hg10 mi
4:53 PM83 °FSunny.12 mph59%29.81 "Hg10 mi
3:53 PM82 °FSunny.13 mph63%29.83 "Hg10 mi
2:53 PM84 °FSunny.17 mph63%29.84 "Hg10 mi
1:53 PM85 °FSunny.7 mph61%29.81 "Hg10 mi
12:53 PM85 °FSunny.8 mph61%29.80 "Hg10 mi
11:53 AM80 °FSunny.No wind67%29.82 "Hg10 mi
10:53 AM80 °FSunny.No wind67%29.82 "Hg10 mi
9:53 AM81 °FSunny.16 mph62%29.87 "Hg10 mi
8:53 AM79 °FSunny.9 mph82%29.86 "Hg9 mi
7:53 AM79 °FFog.6 mph90%29.83 "Hg6 mi
6:53 AM79 °FOvercast.8 mph88%29.79 "Hg7 mi
5:53 AM79 °FPassing clouds.9 mph90%29.78 "Hg7 mi
4:53 AM79 °FMostly cloudy.9 mph90%29.77 "Hg7 mi
4:00 AM79 °FPartly cloudy.8 mph90%29.76 "Hg7 mi
Weather by CustomWeather, © 2015

See weather overviewHow to use our weather pages